This is the latest recevied weather packets stored in our database for station/object VA3WWD-2. If no packets are shown the sender has not sent any weather packets the latest 10 day(s).
| Time | Temp. | Humidity | Pressure | Rain* | Wind** | Luminosity | Snow |
|---|---|---|---|---|---|---|---|
| 1777757723 | 3.33° C | 39% | - | 0 mm | 0 m/s | - | - |
| 1777757425 | 3.33° C | 40% | - | 0 mm | 0 m/s | - | - |
| 1777757124 | 3.33° C | 40% | - | 0 mm | 0 m/s | - | - |
| 1777756826 | 3.33° C | 42% | - | 0 mm | 0 m/s | - | - |
| 1777756528 | 3.33° C | 42% | - | 0 mm | 0 m/s | - | - |
| 1777755929 | 3.89° C | 43% | - | 0 mm | 0 m/s | - | - |
| 1777755631 | 2.78° C | 44% | - | 0 mm | 0 m/s | - | - |
| 1777755330 | 3.33° C | 43% | - | 0 mm | 0 m/s | - | - |
| 1777754433 | 3.33° C | 44% | - | 0 mm | 0 m/s | - | - |
| 1777753536 | 2.78° C | 46% | - | 0 mm | 0 m/s | - | - |
| 1777752940 | 3.33° C | 47% | - | 0 mm | 0 m/s | - | - |
| 1777752639 | 3.33° C | 47% | - | 0 mm | 0 m/s | - | - |
| 1777752341 | 3.33° C | 48% | - | 0 mm | 0 m/s | - | - |
| 1777751742 | 3.33° C | 49% | - | 0 mm | 0 m/s | - | - |
| 1777751146 | 3.33° C | 49% | - | 0 mm | 0 m/s | - | - |
| 1777750249 | 3.33° C | 47% | - | 0 mm | 0 m/s | - | - |
| 1777749948 | 3.89° C | 47% | - | 0 mm | 0 m/s | - | - |
| 1777749650 | 3.89° C | 48% | - | 0 mm | 0 m/s | - | - |
| 1777749352 | 2.78° C | 47% | - | 0 mm | 0 m/s | - | - |
| 1777748455 | 3.89° C | 49% | - | 0 mm | 0 m/s | - | - |
| 1777748154 | 3.33° C | 50% | - | 0 mm | 0 m/s | - | - |
| 1777747856 | 3.89° C | 49% | - | 0 mm | 0 m/s | - | - |
| 1777747258 | 3.33° C | 50% | - | 0 mm | 0 m/s | - | - |
| 1777746960 | 3.33° C | 49% | - | 0 mm | 0 m/s | - | - |
| 1777746361 | 3.33° C | 56% | - | 0 mm | 0 m/s | - | - |
* Rain latest hour (hover to see other rain measurements)
** Current wind speed in m/s (hover to see current wind gust speed)